sat.trackr.live / text

‹ back to catalog

STARLINK-35640

NORAD 66536 · 2025-265W

PAYLOAD ACTIVE UNKNOWN

§ Identity

Operator
Country
US
Launch date
2025-11-19
Launch site
AFETR
Launch vehicle
Mass (kg)
RCS (m²)

Purposes: comms

External: N2YO · Heavens-Above · Gunter

§ Orbital elements

Epoch: 2026-09-20T16:23:28.132800Z

Period
94.27 min
Inclination
43.0007°
Eccentricity
0.0001304
Mean motion
15.27585059 rev/d
Perigee alt
482.1 km
Apogee alt
483.9 km
Semi-major
6,861.2 km
B*
2.5819e-4
RAAN
256.8395°
Arg perigee
285.3003°
Mean anomaly
74.7704°
Rev number
4,693

§ Raw data

STARLINK-356401 66536U 25265W   26263.68296450  .00006850  00000+0  25819-3 0  99912 66536  43.0007 256.8395 0001304 285.3003  74.7704 15.27585059 46937

JSON: /api/v1/satellites/66536 · /tle

For live sub-satellite position, see the globe view (requires WebGL).

§ Visibility from observer

Set your observer location to see the next 7 days of passes ≥ 10°. The values pass through the URL so the page stays shareable.

No JS? Fill the form by hand. The geolocation button needs JavaScript.